Home > Weather > Novorossiysk > Past weeks

Flag for Russia Past Weather in Novorossiysk, Russia — Yesterday and Last 2 Weeks

Now
63 °F

Mild.


Feels Like: 63 °F
Forecast: 63 / 88 °F
Wind: 3 mph from Northeast

Location: Anapa / Vitiazevo

Current Time: Jul 25, 2016 at 5:27:23 AM

Latest Report: Jul 25, 2016 at 5:00 AM


Visibility: 5 mi

Pressure: 29.83 "Hg

Humidity: 94%

Dew Point: 61 °F

Location of NovorossiyskLocation

Past Weather in Novorossiysk — Graph

°F

Novorossiysk Temperature Yesterday

Maximum temperature yesterday: 82 °F (at 2:30 PM)
Minimum temperature yesterday: 61 °F (at 12:00 AM)
Average temperature yesterday: 74 °F

High & Low Weather Summary for the Past Weeks

 TemperatureHumidityPressure
High93 °F (Jul 14, 4:30 PM)100% (Jul 12, 4:00 AM)30.07 "Hg (Jul 12, 4:00 AM)
Low57 °F (Jul 10, 4:00 AM)23% (Jul 13, 2:30 PM)29.62 "Hg (Jul 18, 4:00 PM)
Average76 °F70%29.85 "Hg
* Reported Jul 10 4:00 AM — Jul 25 4:00 AM, Novorossiysk, Weather by CustomWeather, © 2016

Note: Actual official high and low records may vary slightly from our data, if they occured in-between our weather recording intervals... More about our weather records

Advertising

Novorossiysk Weather History for the Previous 24 Hours

Scroll right to see more
 ConditionsComfort  
Time TempWeatherWind HumidityBarometerVisibility
4:00 AM
Mon, Jul 25
63 °FMild.3 mph94%29.83 "Hg5 mi
3:30 AM63 °FMild.1 mph94%29.83 "Hg4 mi
3:00 AM63 °FMild.1 mph94%29.83 "Hg5 mi
2:30 AM61 °FCool.1 mph94%29.83 "Hg5 mi
2:00 AM61 °FCool.3 mph94%29.83 "Hg5 mi
1:30 AM61 °FCool.1 mph94%29.83 "Hg6 mi
1:00 AM63 °FMild.1 mph88%29.83 "HgN/A
12:30 AM63 °FMild.3 mph88%29.83 "HgN/A
12:00 AM66 °FMild.1 mph83%29.83 "HgN/A
11:30 PM
Sun, Jul 24
70 °FPassing clouds.3 mph78%29.83 "HgN/A
11:00 PM73 °FClear.6 mph69%29.83 "Hg10 mi
10:30 PM75 °FClear.6 mph65%29.83 "Hg10 mi
10:00 PM72 °FPassing clouds.6 mph73%29.83 "HgN/A
9:30 PM70 °FPassing clouds.3 mph78%29.83 "HgN/A
9:00 PM72 °FPassing clouds.3 mph73%29.83 "HgN/A
8:30 PM72 °FPassing clouds.3 mph69%29.83 "HgN/A
8:00 PM77 °FSunny.3 mph57%29.83 "Hg10 mi
7:30 PM77 °FSunny.6 mph54%29.83 "Hg10 mi
7:00 PM79 °FPassing clouds.8 mph51%29.83 "HgN/A
6:30 PM79 °FPassing clouds.10 mph54%29.80 "HgN/A
6:00 PM79 °FPassing clouds.13 mph54%29.80 "HgN/A
5:30 PM81 °FPassing clouds.13 mph51%29.80 "HgN/A
5:00 PM81 °FPassing clouds.13 mph48%29.80 "HgN/A
4:30 PM82 °FScattered clouds.17 mph45%29.80 "HgN/A
4:00 PM82 °FScattered clouds.17 mph48%29.80 "HgN/A
3:30 PM81 °FScattered clouds.15 mph51%29.80 "HgN/A
3:00 PM82 °FScattered clouds.15 mph45%29.80 "HgN/A
2:30 PM82 °FScattered clouds.17 mph48%29.80 "HgN/A
2:00 PM81 °FScattered clouds.17 mph54%29.80 "HgN/A
1:30 PM81 °FScattered clouds.15 mph58%29.80 "HgN/A
1:00 PM77 °FScattered clouds.13 mph65%29.80 "HgN/A
12:30 PM81 °FScattered clouds.17 mph58%29.80 "HgN/A
12:00 PM79 °FScattered clouds.15 mph70%29.80 "HgN/A
11:30 AM79 °FScattered clouds.17 mph70%29.80 "HgN/A
11:00 AM75 °FThunderstorms. Scattered clouds.20 mph74%29.80 "Hg5 mi
10:30 AM79 °FScattered clouds.20 mph65%29.80 "HgN/A
10:00 AM77 °FPassing clouds.15 mph65%29.80 "HgN/A
9:30 AM79 °FPassing clouds.15 mph61%29.80 "HgN/A
9:00 AM77 °FPassing clouds.15 mph69%29.80 "HgN/A
8:30 AM75 °FPassing clouds.15 mph74%29.80 "HgN/A
8:00 AM75 °FPassing clouds.13 mph78%29.80 "HgN/A
7:30 AM75 °FPassing clouds.10 mph78%29.80 "HgN/A
7:00 AM75 °FMild.10 mph74%29.80 "HgN/A
6:30 AM72 °FMild.6 mph83%29.80 "HgN/A
6:00 AM70 °FMild.6 mph88%29.83 "HgN/A
5:30 AM70 °FMild.3 mph83%29.83 "HgN/A
5:00 AM70 °FMild.6 mph83%29.83 "HgN/A
Weather by CustomWeather, © 2016

See weather overviewHow to use our weather pages